Location: Roland
(33.2784°N, 96.6494°W)
Time: 04:55:51
(UTC+00:00)

Daily predictions for brighter satellites

Satellite Brightness Start Highest point End
(mag) Time Altitude Azimuth Time Altitude Azimuth Time Altitude Azimuth
Cosmos 1812 Rocket 3.5 00:09:50 10° S 00:14:03 58° E 00:18:18 10° NNE
Cosmos 1076 Rocket 4.2 00:13:11 10° NNW 00:17:29 59° W 00:21:43 10° S
Cosmos 1818 3.5 00:12:30 10° SSW 00:17:50 69° ESE 00:23:05 11° NNE
ISS -1.7 00:18:23 10° N 00:20:08 14° NNE 00:20:08 14° NNE
Cosmos 1602 3.5 00:16:48 10° N 00:20:31 76° E 00:24:14 10° S
Cosmos 1666 2.6 00:19:11 10° N 00:22:41 75° W 00:26:13 10° S
Hubble Space Telescope 2.4 00:19:38 10° WSW 00:23:07 28° SSW 00:26:34 10° SE
SL-16 R/B 2.8 00:19:06 10° NNW 00:24:40 60° WSW 00:30:11 10° S
Meteor 2-2 Rocket 4.2 00:23:03 10° S 00:28:42 73° E 00:34:29 10° NNE
SL-08 R/B 3.2 00:30:18 10° NNE 00:34:53 64° ESE 00:39:29 10° S
Cosmos 1371 Rocket 4.5 00:31:04 10° SSE 00:35:48 37° E 00:38:13 24° NE
SEDSat Delta rocket 3.5 00:30:38 10° WSW 00:35:53 60° S 00:38:26 26° E
Cosmos 44 3.3 00:30:57 10° NNW 00:36:16 82° ENE 00:41:17 10° SSE
ADEOS 3.9 00:31:48 10° SE 00:36:39 41° ENE 00:41:31 10° N
Meteor 2-17 Rocket 4.4 00:30:39 10° S 00:36:41 63° E 00:42:44 10° NNE
Cosmos 1943 3.4 00:33:02 10° N 00:38:28 47° ENE 00:43:52 10° SE
Cosmos 2344 3.8 00:30:42 10° SW 00:38:49 71° WNW 00:46:05 10° NNE
H-2A R/B 1.9 00:36:32 10° W 00:39:25 62° S 00:44:30 18° ESE
ATLAS 2AS CENTAUR R/B 4.3 00:37:27 10° N 00:40:05 14° NNE 00:40:05 14° NNE
Timation 2 Rocket 3.9 00:35:29 10° S 00:41:17 55° ESE 00:45:14 21° NE
Cosmos 1933 3.2 00:41:16 10° S 00:45:14 71° E 00:47:54 20° NNE
ATLAS CENTAUR R/B 3.7 00:40:34 10° NNW 00:45:52 42° NE 00:55:18 11° ESE
COSMO-SKYMED 1 3.0 00:42:40 10° N 00:46:57 61° WNW 00:51:13 10° SSW
Cosmos 1023 Rocket 4.3 00:43:37 10° N 00:48:44 66° ENE 00:53:46 10° SSE
Cosmos 1844 3.7 00:48:21 10° S 00:54:03 65° ESE 00:57:09 28° NE
Cosmos 1420 Rocket 3.9 00:49:55 10° S 00:55:02 64° ESE 00:57:31 31° NNE
Lacrosse 5 2.0 00:54:36 10° SW 00:59:37 68° NW 01:01:52 33° NNE
Meteor 1-25 Rocket 4.2 00:54:32 10° N 01:00:11 86° W 01:05:46 10° S
Cosmos 1624 Rocket 3.9 00:55:25 10° S 01:00:35 64° ESE 01:02:27 39° NE
CZ-2C R/B 2.4 01:02:30 10° W 01:03:41 23° W 01:03:41 23° W
Radarsat Rocket 4.1 01:01:26 10° S 01:07:17 74° WSW 01:13:09 10° NNW
Meteor 1-26 Rocket 4.0 01:02:11 10° S 01:07:37 77° E 01:11:16 22° NNE
Cosmos 2221 2.3 01:06:56 10° S 01:11:10 85° E 01:11:27 77° NNE
Cosmos 1140 Rocket 3.6 01:09:58 10° NNW 01:15:07 71° WSW 01:20:12 10° S
Cosmos 2026 Rocket 4.5 01:10:03 10° SSW 01:16:08 60° W 01:22:22 10° N
Tiangong 0.7 01:28:18 10° W 01:29:56 18° WSW 01:29:56 18° WSW
Meteosat 1 Rocket2 4.1 01:28:27 10° WSW 01:33:13 53° S 01:33:50 51° SSE
Cosmos 1844 Rocket 3.6 01:29:34 10° SW 01:34:52 45° WNW 01:37:28 27° N
ATLAS CENTAUR Rocket 3.9 01:31:49 10° SSW 01:34:31 24° SSE 01:34:31 24° SSE
Lacrosse 4 Rocket 3.1 01:33:13 10° NNW 01:35:17 27° NW 01:35:17 27° NW
Meteor 1-5 Rocket 4.3 01:34:59 10° N 01:40:43 80° W 01:46:36 10° S
COSMOS 2455 3.1 01:43:56 10° SSW 01:48:39 58° SSW 01:48:39 58° SSW
Cosmos 1603 4.4 01:50:05 10° NNW 01:55:34 52° WSW 01:56:48 43° SW
Cosmos 2344 4.4 09:51:53 72° S 09:51:53 72° S 10:03:57 10° SSE
ATLAS 3B R/B 4.3 10:01:56 26° NNE 10:01:56 26° NNE 10:04:49 10° NNE
CZ-3 R/B 3.9 09:49:56 46° SW 09:58:10 63° S 10:08:05 10° E
Cosmos 2333 Rocket 3.6 10:21:52 33° NE 10:21:52 33° NE 10:25:11 10° NNE
USA 215 4.3 10:16:32 10° ENE 10:22:33 39° SE 10:26:13 22° S
Milstar 3 Cent rocket 3.4 10:25:04 36° SE 10:25:04 36° SE 10:29:11 10° ESE
H-2A R/B 4.0 10:22:58 10° NE 10:27:01 25° E 10:31:06 10° SSE
Cosmos 1844 Rocket 3.8 10:31:22 37° NE 10:32:07 39° ENE 10:37:20 10° SE
Lacrosse 5 rocket 3.5 10:38:33 25° ESE 10:38:33 25° ESE 10:41:25 10° ENE
Cosmos 2333 4.1 10:52:26 84° E 10:52:26 84° E 10:58:09 10° NNE
COSMOS 2455 4.0 10:51:51 23° N 10:54:56 39° ENE 11:00:30 10° SE
Chandra Rocket (1) 3.5 11:02:46 25° SSE 11:02:46 25° SSE 11:06:23 10° ESE
Cosmos 1072 Rocket 4.4 10:56:19 10° S 11:02:35 89° E 11:08:58 10° N
ARIANE 5 R/B 2.8 10:59:24 10° NNE 11:04:36 70° ESE 11:09:48 10° S
USA 229 DEB 3.6 10:59:24 13° SSW 11:04:47 72° ESE 11:11:13 10° NE
Cosmos 1812 4.4 11:03:46 25° NE 11:04:49 29° E 11:08:02 10° SE
USA 229 3.6 10:59:11 12° SSW 11:04:51 71° ESE 11:11:17 10° NE
Cosmos-2242 4.1 11:08:14 20° NNE 11:10:50 42° E 11:14:49 10° SSE
Cosmos 1464 Rocket 3.8 11:06:03 10° S 11:12:11 83° W 11:18:24 10° N
Gbstr 26 Del rocket 3.0 11:12:53 86° WNW 11:12:59 88° SW 11:18:20 10° SE
CZ-2D R/B 4.1 11:10:31 10° NNE 11:14:20 52° E 11:18:09 10° S
NOSS 3-1 (A) 4.5 11:17:35 24° N 11:17:35 24° N 11:20:18 10° NNE
Geosat 3.9 11:15:18 10° NNE 11:20:20 88° ESE 11:25:21 10° SSW
IRS-P3 4.0 11:16:02 10° NNE 11:21:22 88° E 11:26:42 10° SSW
Cosmos 2360 Rocket 3.6 11:28:02 21° NNW 11:28:02 21° NNW 11:30:22 10° N
CZ-3 Stage 3 1.8 11:26:05 42° SSW 11:26:05 42° SSW 11:28:16 10° SE
Cosmos 1420 Rocket 4.2 11:23:14 19° N 11:27:08 70° ENE 11:32:23 10° SSE
ASTRO E2 3.8 11:28:32 29° S 11:28:32 29° S 11:31:30 10° SE
Cosmos 2219 Rocket 2.1 11:23:32 10° SSW 11:29:07 65° WNW 11:34:46 10° NNE
Cosmos 1624 Rocket 4.2 11:28:39 16° N 11:32:52 70° ENE 11:38:02 10° SSE
BlueWalker 3 4.1 11:33:51 15° N 11:35:25 18° NE 11:38:06 10° E
SL-19 R/B 4.0 11:30:42 10° N 11:36:03 65° WNW 11:41:12 10° SSW
SL-08 R/B 4.3 11:32:10 10° SE 11:36:40 45° ENE 11:41:06 10° N
Cosmos 1844 3.6 11:34:01 31° NW 11:36:41 64° WSW 11:42:09 10° S
COSMO-SKYMED 1 3.1 11:33:06 10° SSE 11:37:21 60° ENE 11:41:38 10° N
Helios 1A 2.8 11:33:18 10° S 11:37:23 73° WSW 11:39:10 33° NNW
Cosmos 2034 Rocket 3.9 11:35:37 10° SSW 11:41:57 71° W 11:48:16 10° N
Timation 2 Rocket 4.3 11:40:00 27° NW 11:43:23 50° WSW 11:49:49 10° S
Okean 1-7 Rocket 4.0 11:39:34 10° SSW 11:47:12 13° NNW 11:47:48 10° N
Cosmos 2322 Rocket 4.3 11:48:28 10° NNW 11:48:28 10° NNW 11:48:33 10° NNW
SJ-12 3.8 11:43:18 10° N 11:47:20 88° W 11:51:22 10° SSW
ATLAS 3B R/B 4.1 11:49:13 19° NW 11:49:15 19° NW 11:54:14 10° N
FengYun 1-2 T 4.1 11:45:44 10° N 11:51:21 83° WNW 11:56:52 10° SSW
PSLV R/B 3.8 11:48:49 10° NNE 11:53:07 71° ESE 11:57:21 10° S
Atlas Centaur 2 4.1 11:53:20 10° SSE 11:54:21 11° SSE 11:55:23 10° SE
